[[{"header":{"parameterUnit":"m.s-1","parameterCategory":1,"la1":30.2991,"la2":30.254,"lo1":-89.0895,"lo2":-89.0444,"dy":0.0017,"dx":0.0017,"nx":28,"ny":28,"refTime":"2025-09-11T03:00:00:Z","depth":0,"parameterNumber":2,"parameterNumberName":"U-component_of_WINDS"},"data":[0,0,0,0,0,0,0,0,0,0,0,0,0,0,0,0,0,0,0,0,0,0,0,0,0,0,0,0,0,0,0,0,0,0,0,0,0,0,0,0,0,0,0,0,0,0,0,0,0,0,0,0,0,0,0,0,0,0,0.5178,0.5178,0,0.5145,0.5145,0.5144,0.5117,0.5116,0.5116,0.5116,0.5081,0.5081,0.508,0,0,0,0,0,0,0,0,0,0,0,0,0,0.5216,0.5216,0.5178,0.5178,0.5177,0.5145,0.5145,0.5144,0.5117,0.5116,0.5116,0.5116,0.5082,0.5081,0.508,0,0,0,0,0,0,0,0,0,0,0,0,0,0.5193,0.5215,0.5178,0.516,0.5158,0.5145,0.5144,0.5144,0.5117,0.5116,0.5116,0.5115,0.5082,0.5081,0.508,0.5083,0,0,0.5077,0.5077,0,0,0,0,0,0,0,0,0.5194,0.5192,0.5163,0.5161,0.5159,0.5134,0.5145,0.5123,0.5117,0.5132,0.5116,0.5115,0.5099,0.5097,0.5092,0.5081,0.508,0.5077,0.5076,0.5076,0.5076,0,0,0,0,0,0,0,0.5196,0.5193,0.5165,0.5162,0.516,0.5153,0.5149,0.5141,0.5119,0.5131,0.5129,0.5125,0.5098,0.5093,0.5091,0.5079,0.5077,0.5076,0.5076,0.5075,0.5068,0.5068,0,0,0,0,0,0,0.5201,0.5194,0.5166,0.5164,0.5176,0.5152,0.5148,0.5143,0.5119,0.5115,0.5126,0.5124,0.5095,0.5092,0.5089,0.509,0.5076,0.5075,0.5075,0.5067,0.5068,0.5068,0,0,0,0,0,0,0.5202,0.5198,0.5167,0.5179,0.5174,0.5152,0.5146,0.5142,0.5137,0.5115,0.5111,0.5124,0.5094,0.5091,0.5084,0.5088,0.5075,0.5074,0.5067,0.5067,0.5068,0.5092,0,0,0,0,0,0,0.5203,0.5199,0.52,0.5179,0.5174,0.5163,0.5147,0.5142,0.5135,0.5133,0.5112,0.5109,0.5093,0.5086,0.5083,0.5087,0.5073,0.5066,0.5067,0.5068,0.5091,0.5093,0.5095,0,0,0,0,0,0.5204,0.5209,0.52,0.5197,0.5175,0.5164,0.5161,0.5143,0.5136,0.5136,0.5122,0.5109,0.5088,0.5085,0.5082,0.5086,0.5066,0.5067,0.5068,0.509,0.5093,0.5095,0,0,0,0,0,0,0.5231,0.5206,0.5196,0.5194,0.5181,0.5159,0.516,0.5148,0.5137,0.5135,0.5114,0.5109,0.5105,0.5095,0.5092,0.5086,0.5075,0.5076,0.5093,0.5096,0.5098,0.5101,0.5072,0,0,0,0,0,0.5237,0.523,0.5208,0.5208,0.5202,0.5182,0.5177,0.5164,0.515,0.5145,0.513,0.5116,0.5107,0.5101,0.5091,0.5089,0.5083,0.509,0.5092,0.5094,0.5094,0.5091,0.5093,0.5071,0.5071,0.5071,0,0,0.5249,0.5234,0.5231,0.5213,0.5202,0.5195,0.5178,0.5172,0.5166,0.5144,0.5136,0.5125,0.5108,0.5104,0.5101,0.5095,0.5099,0.5095,0.5097,0.5096,0.5092,0.5094,0.5096,0.5071,0.5071,0.5071,0,0,0.5266,0.5255,0.5253,0.5242,0.5225,0.5211,0.521,0.519,0.5181,0.5174,0.5156,0.5149,0.5133,0.5122,0.5114,0.5125,0.5113,0.5123,0.5135,0.5132,0.5134,0.5135,0.5138,0.514,0.5123,0.5123,0.5123,0,0.5283,0.5272,0.5253,0.5248,0.524,0.5219,0.5216,0.5206,0.5187,0.5182,0.5175,0.5154,0.5141,0.5133,0.5136,0.513,0.5128,0.5125,0.5135,0.5136,0.5138,0.514,0.5141,0.5124,0.5124,0.5124,0.5124,0,0.5293,0.5285,0.5286,0.5267,0.5259,0.5255,0.5235,0.523,0.5218,0.5204,0.5196,0.518,0.5166,0.5163,0.5151,0.5152,0.5149,0.5139,0.5128,0.5141,0.5143,0.5144,0.5126,0.5126,0.5125,0.5125,0,0,0.5327,0.5297,0.5298,0.5288,0.5267,0.5261,0.5255,0.5241,0.5236,0.5223,0.5217,0.5203,0.5193,0.5185,0.5171,0.5169,0.5177,0.5159,0.5158,0.5162,0.5176,0.5183,0.5185,0.5169,0.5169,0.5169,0.5177,0,0.534,0.533,0.5312,0.5307,0.5299,0.5278,0.5273,0.5259,0.5247,0.5238,0.5223,0.5213,0.5202,0.5196,0.5193,0.5177,0.518,0.5176,0.5162,0.5162,0.5167,0.5186,0.5194,0.5203,0.5178,0.5178,0.5178,0,0.5355,0.5343,0.5337,0.5315,0.5311,0.5307,0.5292,0.5284,0.5267,0.5257,0.5247,0.5232,0.5224,0.5214,0.5202,0.52,0.5193,0.5184,0.5184,0.5182,0.5171,0.5184,0.5205,0.5206,0.518,0.5179,0.5179,0,0.5379,0.5361,0.5355,0.5348,0.5323,0.532,0.5309,0.5292,0.5284,0.5271,0.5265,0.5251,0.5243,0.5232,0.5213,0.5208,0.5203,0.5191,0.5194,0.5194,0.5194,0.5194,0.5214,0.519,0.519,0.519,0.519,0,0.5396,0.5393,0.5365,0.5361,0.5357,0.5336,0.5332,0.5319,0.5304,0.5296,0.5278,0.5271,0.5247,0.5237,0.5222,0.5214,0.5211,0.5202,0.5198,0.5204,0.5205,0.5198,0.5197,0.5191,0.5191,0.519,0.519,0,0.5423,0.5404,0.5396,0.5372,0.5366,0.5364,0.5343,0.5338,0.5324,0.5314,0.5311,0.5288,0.5275,0.5256,0.5237,0.5227,0.5221,0.5215,0.5226,0.5224,0.5227,0.5227,0.5243,0.5244,0.5221,0.5221,0.5222,0,0.5434,0.5431,0.5407,0.5401,0.5391,0.5381,0.5373,0.5352,0.5344,0.5324,0.5321,0.5306,0.5294,0.5274,0.5256,0.5241,0.5234,0.524,0.5231,0.5236,0.5233,0.5233,0.5232,0.5243,0.5243,0.5243,0.5243,0,0.5456,0.5447,0.5436,0.5422,0.5412,0.5399,0.5386,0.5382,0.5358,0.5349,0.5336,0.5326,0.5307,0.5292,0.5275,0.5263,0.5249,0.5246,0.5246,0.5251,0.5258,0.5253,0.5231,0.5246,0.5246,0.5246,0.5245,0.5245,0.5475,0.5471,0.5453,0.5441,0.5429,0.5416,0.541,0.5394,0.5383,0.5366,0.5354,0.5341,0.5322,0.5297,0.5286,0.5275,0.5269,0.5269,0.5269,0.5269,0.527,0.526,0.5272,0.5272,0.5272,0.5271,0.5271,0,0.5496,0.5483,0.5472,0.5453,0.5444,0.5431,0.5415,0.5408,0.5397,0.5381,0.5369,0.5353,0.5338,0.5318,0.5302,0.5297,0.529,0.5293,0.5293,0.529,0.5277,0.5278,0.5299,0.5299,0.5299,0.5299,0.5299,0.5299,0.5505,0.5497,0.5485,0.547,0.5458,0.5445,0.5437,0.5424,0.5412,0.5395,0.5383,0.537,0.5352,0.5334,0.532,0.5314,0.5308,0.5314,0.5306,0.5294,0.5291,0.5289,0.529,0.5313,0.5313,0.532,0.532,0.532]},{"header":{"parameterUnit":"m.s-1","parameterCategory":1,"la1":30.2991,"la2":30.254,"lo1":-89.0895,"lo2":-89.0444,"dy":0.0017,"dx":0.0017,"nx":28,"ny":28,"refTime":"2025-09-11T03:00:00:Z","depth":0,"parameterNumber":3,"parameterNumberName":"V-component_of_WINDS"},"data":[0,0,0,0,0,0,0,0,0,0,0,0,0,0,0,0,0,0,0,0,0,0,0,0,0,0,0,0,0,0,0,0,0,0,0,0,0,0,0,0,0,0,0,0,0,0,0,0,0,0,0,0,0,0,0,0,0,0,2.0843,2.0843,0,2.0812,2.0811,2.0811,2.0759,2.0758,2.0757,2.0756,2.0722,2.0722,2.0722,0,0,0,0,0,0,0,0,0,0,0,0,0,2.0856,2.0856,2.0843,2.0843,2.0843,2.0812,2.0811,2.0811,2.0759,2.0758,2.0757,2.0756,2.0722,2.0722,2.0722,0,0,0,0,0,0,0,0,0,0,0,0,0,2.084,2.0856,2.0843,2.0813,2.081,2.0812,2.0811,2.0811,2.0759,2.0758,2.0756,2.0755,2.0722,2.0722,2.0722,2.075,0,0,2.0722,2.0722,0,0,0,0,0,0,0,0,2.0841,2.084,2.0818,2.0815,2.0812,2.0788,2.0803,2.079,2.076,2.0778,2.0756,2.0754,2.0745,2.0743,2.074,2.0749,2.0747,2.0722,2.0722,2.0722,2.0722,0,0,0,0,0,0,0,2.0842,2.0841,2.0831,2.0818,2.0814,2.08,2.0796,2.08,2.077,2.0777,2.0773,2.077,2.0743,2.074,2.0739,2.0747,2.0722,2.0722,2.0722,2.0722,2.0773,2.0775,0,0,0,0,0,0,2.0848,2.0842,2.0832,2.083,2.0823,2.0801,2.0797,2.0797,2.077,2.0764,2.0771,2.0768,2.0741,2.0739,2.0737,2.0766,2.0722,2.0722,2.0722,2.0772,2.0773,2.0775,0,0,0,0,0,0,2.0848,2.0848,2.0833,2.0835,2.0832,2.0802,2.0803,2.0797,2.0794,2.0766,2.076,2.0774,2.074,2.0737,2.0747,2.0764,2.0722,2.0722,2.077,2.0772,2.0774,2.0826,0,0,0,0,0,0,2.0849,2.0848,2.0859,2.0835,2.0832,2.0844,2.0804,2.0797,2.0794,2.0789,2.0767,2.0762,2.0738,2.0747,2.0747,2.0764,2.0722,2.0768,2.0771,2.0774,2.0822,2.0829,2.0836,0,0,0,0,0,2.085,2.0876,2.086,2.0859,2.0846,2.0845,2.0843,2.0816,2.0796,2.0806,2.0788,2.0762,2.0763,2.0748,2.0748,2.0765,2.0767,2.077,2.0773,2.082,2.0828,2.0835,0,0,0,0,0,0,2.0902,2.0872,2.0855,2.0874,2.0862,2.0837,2.0849,2.0827,2.0821,2.0816,2.0782,2.0778,2.0791,2.0779,2.0763,2.0789,2.0761,2.0764,2.0796,2.0804,2.0811,2.0812,2.0722,0,0,0,0,0,2.0916,2.0919,2.0892,2.0912,2.0907,2.0879,2.0878,2.0858,2.0845,2.084,2.0822,2.0809,2.0806,2.0805,2.08,2.0821,2.0813,2.0832,2.0838,2.0844,2.0847,2.0853,2.086,2.0785,2.0785,2.0785,0,0,2.0945,2.0929,2.0933,2.0922,2.0911,2.0913,2.0875,2.088,2.0881,2.084,2.0847,2.0834,2.0817,2.0831,2.0837,2.0822,2.0866,2.0848,2.0853,2.0852,2.0857,2.0864,2.0871,2.0787,2.0787,2.0787,0,0,2.0998,2.0987,2.1,2.099,2.0974,2.0954,2.0958,2.0935,2.0924,2.0931,2.0899,2.0899,2.0896,2.0884,2.0878,2.0925,2.09,2.0924,2.0958,2.0965,2.0971,2.0976,2.099,2.0995,2.0927,2.0927,2.0927,0,2.1035,2.1039,2.101,2.1016,2.1011,2.0975,2.0987,2.0978,2.0961,2.0958,2.0941,2.0934,2.0921,2.093,2.0941,2.0938,2.0939,2.0926,2.0972,2.0977,2.0981,2.0994,2.1,2.093,2.093,2.093,2.0929,0,2.1084,2.1087,2.1099,2.1083,2.108,2.109,2.1061,2.1061,2.1041,2.1023,2.1029,2.1011,2.1002,2.1003,2.0984,2.1009,2.1,2.0979,2.0949,2.0992,2.1003,2.1008,2.0934,2.0933,2.0932,2.0932,0,0,2.1169,2.1136,2.1141,2.1133,2.1111,2.1112,2.1119,2.1109,2.1109,2.1098,2.1101,2.1098,2.1077,2.107,2.1049,2.1056,2.109,2.1033,2.1032,2.1042,2.1114,2.1128,2.1135,2.1074,2.1075,2.1076,2.1114,0,2.1216,2.1226,2.12,2.1216,2.1216,2.1181,2.1186,2.1172,2.1156,2.1153,2.1134,2.1131,2.1106,2.1101,2.1106,2.1085,2.1104,2.1082,2.1075,2.1075,2.1078,2.1141,2.1157,2.1194,2.1119,2.1119,2.112,0,2.1272,2.1263,2.1279,2.1255,2.1254,2.1259,2.1247,2.1246,2.1229,2.1216,2.1207,2.1183,2.1185,2.1159,2.116,2.1146,2.1142,2.1131,2.1132,2.1129,2.1099,2.1137,2.1205,2.121,2.1127,2.1127,2.1126,0,2.1329,2.1322,2.133,2.1324,2.1296,2.13,2.1289,2.127,2.1266,2.1255,2.1251,2.1241,2.1235,2.1227,2.1199,2.1183,2.1203,2.1175,2.1191,2.1191,2.1196,2.1195,2.1262,2.1196,2.1196,2.1196,2.1196,0,2.1382,2.1393,2.1355,2.136,2.137,2.1339,2.1349,2.1334,2.1318,2.1318,2.1286,2.1287,2.1251,2.1247,2.1225,2.1229,2.1227,2.1215,2.1209,2.1217,2.1218,2.1212,2.1208,2.1197,2.1197,2.1197,2.1197,0,2.1448,2.1423,2.1429,2.1402,2.1395,2.1403,2.1379,2.1382,2.1363,2.1363,2.1361,2.133,2.1323,2.1296,2.1282,2.1267,2.1277,2.1266,2.1283,2.1278,2.1295,2.1293,2.1358,2.1364,2.1297,2.1298,2.1298,0,2.1483,2.149,2.1463,2.1461,2.1451,2.1448,2.1443,2.1413,2.1408,2.1388,2.1392,2.1383,2.1374,2.1364,2.134,2.1328,2.1316,2.134,2.1314,2.1321,2.1313,2.1312,2.1312,2.1345,2.1346,2.1346,2.1347,0,2.1546,2.1533,2.1527,2.1517,2.1511,2.1502,2.149,2.1489,2.1455,2.1451,2.1444,2.1437,2.1423,2.1413,2.1397,2.1383,2.1359,2.1355,2.1358,2.1365,2.1373,2.1367,2.1295,2.1354,2.1353,2.1352,2.1352,2.1352,2.1596,2.1599,2.1581,2.1575,2.1563,2.1552,2.1552,2.1533,2.1526,2.1512,2.1495,2.1489,2.1469,2.1446,2.1434,2.1428,2.1414,2.1419,2.1419,2.1421,2.1423,2.1376,2.1425,2.1425,2.1424,2.1424,2.1424,0,2.1656,2.1642,2.1637,2.1621,2.1615,2.1594,2.1579,2.1575,2.1571,2.1555,2.1546,2.1537,2.1526,2.1501,2.1488,2.1488,2.1476,2.1485,2.1484,2.148,2.1437,2.1435,2.1495,2.1495,2.1495,2.1495,2.1495,2.1495,2.1686,2.1691,2.1675,2.1672,2.1658,2.1653,2.1646,2.1635,2.1622,2.1612,2.1604,2.1588,2.1567,2.1552,2.1541,2.1534,2.1529,2.1542,2.153,2.1491,2.1484,2.1477,2.1475,2.1542,2.1542,2.1573,2.1574,2.1574]}]]